Location: Chassagnes
(44.4047°N, 4.1657°E)
Time: 12:49:51
(UTC+00:00)

SL-08 ROCKET BODY - Pass Details

Date: 27 October 2020
Orbit: 897 x 962 km, 82.9° (Epoch: 23 November)

Event Time Altitude Azimuth Distance (km) Brightness Sun altitude
Rises 18:12:51 0° 352° (N) 3,611 7.6 -17.3°
Reaches altitude 10° 18:15:20 10° 353° (N) 2,672 6.9 -17.7°
Maximum altitude 18:21:28 83° 82° (E) 967 4.4 -18.8°
Drops below altitude 10° 18:27:38 10° 171° (S) 2,685 6.7 -19.9°
Sets 18:30:08 0° 172° (S) 3,631 7.4 -20.3°
